KD8DWO Weather Reports


Display with metric or nautical units.
time (UTC)temp
F
wind
direction
speed
MPH
gust
MPH
rain 1hr
in
rain 24hr
in
rain mn
in
humidity
%
barometer
mb
20260508185005 58 236 9.0 15.0 0.00 0.00 0.00 74 1010.7
20260508184005 58 246 14.0 16.0 0.00 0.00 0.00 73 1010.5
20260508182005 59 236 10.0 16.0 0.00 0.00 0.00 65 1010.9
20260508181004 60 245 14.0 16.0 0.00 0.00 0.00 62 1011.0
20260508180005 60 234 3.0 15.0 0.00 0.00 0.00 63 1011.0
20260508175005 60 239 7.0 15.0 0.00 0.00 0.00 64 1011.2
20260508174005 59 243 7.0 13.0 0.00 0.00 0.00 69 1011.0
20260508173005 58 241 10.0 17.0 0.00 0.00 0.00 66 1011.3
20260508172005 59 249 8.0 10.0 0.00 0.00 0.00 69 1011.4
20260508171005 58 249 10.0 10.0 0.00 0.00 0.00 69 1011.7
20260508170005 58 248 8.0 12.0 0.00 0.00 0.00 69 1011.5
20260508165004 57 251 3.0 15.0 0.00 0.00 0.00 71 1011.8
20260508164004 57 243 7.0 15.0 0.00 0.00 0.00 71 1011.9
20260508163005 57 245 6.0 13.0 0.00 0.00 0.00 71 1011.9
20260508161005 56 249 0.0 5.0 0.00 0.00 0.00 73 1012.4
20260508160005 55 244 5.0 15.0 0.00 0.00 0.00 73 1012.4
20260508153004 55 256 0.0 0.0 0.00 0.00 0.00 74 1012.4
20260508152004 55 253 0.0 0.0 0.00 0.00 0.00 75 1012.5
20260508151004 54 240 0.0 0.0 0.00 0.00 0.00 74 1012.5
20260508150006 54 237 0.0 3.0 0.00 0.00 0.00 74 1012.5
20260508142004 53 247 0.0 0.0 0.00 0.00 0.00 75 1012.6
20260508141005 53 234 0.0 0.0 0.00 0.00 0.00 77 1012.4
20260508140004 53 242 0.0 0.0 0.00 0.00 0.00 78 1012.5
20260508135004 52 252 0.0 0.0 0.00 0.00 0.00 78 1012.5
20260508134004 52 248 0.0 0.0 0.00 0.00 0.00 78 1012.5
20260508132004 52 255 0.0 0.0 0.00 0.00 0.00 80 1012.5
20260508130004 51 235 0.0 0.0 0.00 0.00 0.00 80 1012.6
20260508125005 51 248 0.0 3.0 0.00 0.00 0.00 82 1012.7
20260508124005 50 248 0.0 0.0 0.00 0.00 0.00 83 1012.6
20260508123004 49 244 0.0 0.0 0.00 0.00 0.00 84 1012.9
20260508122004 48 241 0.0 0.0 0.00 0.00 0.00 86 1012.7
20260508121004 48 248 0.0 0.0 0.00 0.00 0.00 88 1012.6
20260508115004 46 243 0.0 0.0 0.00 0.00 0.00 88 1012.5
20260508114005 46 240 0.0 0.0 0.00 0.00 0.00 89 1012.4
20260508112004 45 240 0.0 0.0 0.00 0.00 0.00 90 1011.9
20260508110004 44 241 0.0 0.0 0.00 0.00 0.00 90 1012.0
20260508105004 43 240 0.0 0.0 0.00 0.00 0.00 89 1011.8
20260508104004 43 241 0.0 0.0 0.00 0.00 0.00 89 1011.6
20260508103004 43 239 0.0 0.0 0.00 0.00 0.00 89 1011.7
20260508102004 43 239 0.0 0.0 0.00 0.00 0.00 89 1011.5
20260508101004 43 239 0.0 0.0 0.00 0.00 0.00 89 1011.6
20260508100004 44 239 0.0 0.0 0.00 0.00 0.00 89 1011.6
20260508095004 44 239 0.0 0.0 0.00 0.00 0.00 88 1011.6
20260508093004 45 239 0.0 0.0 0.00 0.00 0.00 87 1011.7
20260508092004 45 239 0.0 0.0 0.00 0.00 0.00 87 1011.6
20260508091004 46 239 0.0 0.0 0.00 0.00 0.00 88 1012.0
20260508090004 46 239 0.0 0.0 0.00 0.00 0.00 88 1012.0
20260508085003 46 239 0.0 0.0 0.00 0.00 0.00 87 1012.0
20260508084004 46 239 0.0 0.0 0.00 0.00 0.00 88 1011.8
20260508083003 46 239 0.0 0.0 0.00 0.00 0.00 87 1011.8
20260508082004 46 239 0.0 0.0 0.00 0.00 0.00 87 1011.9
20260508081004 45 239 0.0 0.0 0.00 0.00 0.00 88 1012.0
20260508080004 45 239 0.0 0.0 0.00 0.00 0.00 87 1012.1
20260508075004 45 239 0.0 0.0 0.00 0.00 0.00 87 1011.9
20260508074004 45 239 0.0 0.0 0.00 0.00 0.00 88 1012.0
20260508073006 45 239 0.0 0.0 0.00 0.00 0.00 87 1012.0
20260508072006 45 239 0.0 0.0 0.00 0.00 0.00 87 1012.1
20260508071006 45 239 0.0 0.0 0.00 0.00 0.00 86 1012.2
20260508070006 45 239 0.0 0.0 0.00 0.00 0.00 86 1012.0
20260508065005 45 239 0.0 0.0 0.00 0.00 0.00 86 1012.2
20260508064006 45 239 0.0 0.0 0.00 0.00 0.00 85 1012.2
20260508063005 45 239 0.0 0.0 0.00 0.00 0.00 85 1012.3
20260508062005 45 239 0.0 0.0 0.00 0.00 0.00 84 1012.4
20260508055005 45 245 0.0 0.0 0.00 0.00 0.00 82 1012.5
20260508054006 46 247 0.0 0.0 0.00 0.00 0.00 81 1012.6
20260508053006 46 250 0.0 0.0 0.00 0.00 0.00 81 1012.6
20260508052006 46 241 0.0 0.0 0.00 0.00 0.00 80 1012.6
20260508051005 47 239 0.0 0.0 0.00 0.00 0.00 79 1012.8
20260508050006 47 239 0.0 3.0 0.00 0.00 0.00 78 1012.8
20260508045005 48 241 0.0 0.0 0.00 0.00 0.00 77 1012.9
20260508044007 48 245 0.0 0.0 0.00 0.00 0.00 77 1012.6
20260508043005 49 238 10.0 13.0 0.00 0.00 0.00 75 1012.4
20260508042006 49 238 11.0 15.0 0.00 0.00 0.00 73 1012.3
20260508041006 50 232 10.0 13.0 0.00 0.00 0.00 70 1012.2
20260508040006 49 223 0.0 0.0 0.00 0.00 0.00 70 1012.6
20260508035005 49 240 0.0 0.0 0.00 0.00 0.00 71 1012.7
20260508034005 49 236 0.0 0.0 0.00 0.00 0.00 70 1012.9
20260508033006 49 235 0.0 0.0 0.00 0.00 0.00 69 1012.9
20260508032006 49 235 0.0 0.0 0.00 0.00 0.00 70 1012.8
20260508031006 48 235 0.0 0.0 0.00 0.00 0.00 71 1013.0
20260508030006 48 237 0.0 0.0 0.00 0.00 0.00 71 1013.0
20260508025006 48 237 0.0 0.0 0.00 0.00 0.00 72 1013.0
20260508024006 48 242 0.0 0.0 0.00 0.00 0.00 72 1013.1
20260508023006 48 245 0.0 0.0 0.00 0.00 0.00 70 1013.1
20260508022006 48 238 0.0 0.0 0.00 0.00 0.00 69 1013.0
20260508015005 48 239 0.0 0.0 0.00 0.00 0.00 68 1013.0
20260508014006 48 240 0.0 0.0 0.00 0.00 0.00 66 1013.1
20260508013006 49 242 0.0 0.0 0.00 0.00 0.00 63 1012.9
20260508012005 50 237 0.0 0.0 0.00 0.00 0.00 61 1012.7
20260508011006 50 243 0.0 0.0 0.00 0.00 0.00 61 1013.0
20260508010005 51 243 0.0 0.0 0.00 0.00 0.00 59 1012.9
20260508005005 51 241 0.0 16.0 0.00 0.00 0.00 57 1012.9
20260508004005 51 241 10.0 15.0 0.00 0.00 0.00 54 1013.0
20260508003006 52 246 14.0 17.0 0.00 0.00 0.00 51 1013.0
20260508000005 55 251 14.0 21.0 0.00 0.00 0.00 42 1012.6
20260507235005 55 246 16.0 17.0 0.00 0.00 0.00 39 1012.4
20260507234005 56 247 13.0 16.0 0.00 0.00 0.00 37 1012.3
20260507233006 56 244 12.0 21.0 0.00 0.00 0.00 35 1012.3
20260507231006 57 237 5.0 10.0 0.00 0.00 0.00 34 1012.3
20260507230006 57 243 7.0 13.0 0.00 0.00 0.00 33 1012.4
20260507225005 57 245 7.0 13.0 0.00 0.00 0.00 33 1012.3
20260507224005 57 238 9.0 13.0 0.00 0.00 0.00 32 1012.2
20260507223005 59 234 9.0 17.0 0.00 0.00 0.00 30 1012.2
20260507222005 58 245 3.0 13.0 0.00 0.00 0.00 32 1012.2
20260507221005 57 249 9.0 10.0 0.00 0.00 0.00 33 1012.4
20260507220005 58 253 6.0 13.0 0.00 0.00 0.00 30 1012.3
20260507215005 58 250 6.0 12.0 0.00 0.00 0.00 31 1012.1
20260507214006 59 260 5.0 10.0 0.00 0.00 0.00 31 1012.2
20260507213005 58 272 2.0 10.0 0.00 0.00 0.00 34 1012.2
20260507212005 60 246 7.0 13.0 0.00 0.00 0.00 31 1012.2
20260507211005 60 237 10.0 13.0 0.00 0.00 0.00 29 1012.1
20260507210006 59 0 3.0 10.0 0.00 0.00 0.00 34 1012.2
20260507205006 59 316 5.0 7.0 0.00 0.00 0.00 34 1012.4
20260507203005 58 271 4.0 7.0 0.00 0.00 0.00 36 1012.5
20260507202006 59 254 5.0 10.0 0.00 0.00 0.00 33 1012.6
20260507201005 58 284 5.0 10.0 0.00 0.00 0.00 36 1012.7
20260507200005 57 342 4.0 9.0 0.00 0.00 0.00 36 1012.8
20260507195005 57 15 5.0 13.0 0.00 0.00 0.00 37 1012.9
20260507194005 57 303 5.0 9.0 0.00 0.00 0.00 38 1013.0
20260507193005 58 225 6.0 10.0 0.00 0.00 0.00 36 1013.0
20260507192005 58 312 4.0 10.0 0.00 0.00 0.00 37 1012.9
20260507191005 58 252 6.0 9.0 0.00 0.00 0.00 37 1012.9
20260507190006 58 303 5.0 16.0 0.00 0.00 0.00 37 1013.0